QFA07T YSSY-YMML

Flight info

Callsign QFA07T
Flight time 1h 10m
Altitude 34000
Route WOL2 WOL DCT CB DCT BOYSE BOYSE8A
Aircraft B738/M-SDE2E3FGHIRWXY/LB1

Departure

Time 2026-05-06 13:29
Airport Sydney Kingsford Smith International Airport (YSSY)

Arrival

Time 2026-05-06 14:39
Airport Melbourne Airport (YMML)
Time Latitude Longitude Altitude Speed Heading
2026-05-06 12:33 -33.93151 151.17802 30 ft 0 kts 191°
2026-05-06 13:03 -33.93142 151.17804 30 ft 4 kts 191°
2026-05-06 13:03 -33.93125 151.17804 29 ft 2 kts 191°
2026-05-06 13:03 -33.93113 151.17803 30 ft 2 kts 255°
2026-05-06 13:04 -33.93111 151.17818 29 ft 2 kts 189°
2026-05-06 13:04 -33.93106 151.17819 30 ft 0 kts 137°
2026-05-06 13:04 -33.93109 151.17824 30 ft 0 kts 129°
2026-05-06 13:05 -33.93104 151.17816 30 ft 2 kts 135°
2026-05-06 13:05 -33.93093 151.17805 30 ft 2 kts 148°
2026-05-06 13:05 -33.93082 151.17799 29 ft 2 kts 183°
2026-05-06 13:05 -33.93072 151.17804 28 ft 2 kts 242°
2026-05-06 13:06 -33.93068 151.17817 30 ft 2 kts 263°
2026-05-06 13:06 -33.93067 151.17830 28 ft 2 kts 273°
2026-05-06 13:06 -33.93067 151.17832 28 ft 0 kts 274°
2026-05-06 13:11 -33.93067 151.17823 30 ft 3 kts 275°
2026-05-06 13:11 -33.93059 151.17775 28 ft 9 kts 285°
2026-05-06 13:11 -33.93029 151.17697 29 ft 8 kts 297°
2026-05-06 13:11 -33.93008 151.17621 29 ft 11 kts 282°
2026-05-06 13:12 -33.93007 151.17595 14 ft 0 kts 269°
2026-05-06 13:12 -33.93007 151.17579 29 ft 4 kts 269°
2026-05-06 13:12 -33.93013 151.17560 29 ft 3 kts 232°
2026-05-06 13:12 -33.93062 151.17521 29 ft 12 kts 203°
2026-05-06 13:13 -33.93153 151.17530 29 ft 14 kts 163°
2026-05-06 13:13 -33.93242 151.17554 29 ft 13 kts 167°
2026-05-06 13:13 -33.93326 151.17577 29 ft 12 kts 167°
2026-05-06 13:13 -33.93400 151.17593 29 ft 9 kts 175°
2026-05-06 13:14 -33.93455 151.17588 28 ft 8 kts 188°
2026-05-06 13:14 -33.93520 151.17593 27 ft 11 kts 168°
2026-05-06 13:14 -33.93601 151.17615 27 ft 14 kts 167°
2026-05-06 13:14 -33.93676 151.17657 28 ft 12 kts 150°
2026-05-06 13:15 -33.93767 151.17692 20 ft 15 kts 167°
2026-05-06 13:15 -33.93864 151.17732 19 ft 15 kts 137°
2026-05-06 13:15 -33.93950 151.17792 21 ft 14 kts 165°
2026-05-06 13:15 -33.94044 151.17817 24 ft 14 kts 168°
2026-05-06 13:16 -33.94135 151.17839 25 ft 13 kts 168°
2026-05-06 13:16 -33.94222 151.17862 25 ft 13 kts 167°
2026-05-06 13:16 -33.94307 151.17884 26 ft 12 kts 173°
2026-05-06 13:16 -33.94391 151.17881 25 ft 12 kts 163°
2026-05-06 13:17 -33.94471 151.17893 25 ft 12 kts 194°
2026-05-06 13:17 -33.94550 151.17890 23 ft 11 kts 169°
2026-05-06 13:17 -33.94622 151.17908 25 ft 12 kts 168°
2026-05-06 13:17 -33.94702 151.17929 24 ft 12 kts 167°
2026-05-06 13:18 -33.94785 151.17950 23 ft 14 kts 168°
2026-05-06 13:18 -33.94918 151.17985 21 ft 23 kts 168°
2026-05-06 13:18 -33.95039 151.18016 26 ft 11 kts 168°
2026-05-06 13:18 -33.95115 151.18035 31 ft 11 kts 168°
2026-05-06 13:19 -33.95185 151.18022 25 ft 11 kts 227°
2026-05-06 13:19 -33.95208 151.17938 25 ft 7 kts 257°
2026-05-06 13:19 -33.95212 151.17920 23 ft 0 kts 258°
2026-05-06 13:23 -33.95212 151.17919 23 ft 1 kts 258°
2026-05-06 13:24 -33.95238 151.17774 24 ft 30 kts 258°
2026-05-06 13:24 -33.95263 151.17647 20 ft 10 kts 247°
2026-05-06 13:24 -33.95313 151.17586 20 ft 11 kts 203°
2026-05-06 13:24 -33.95390 151.17591 19 ft 11 kts 164°
2026-05-06 13:25 -33.95465 151.17611 20 ft 12 kts 168°
2026-05-06 13:25 -33.95562 151.17636 20 ft 17 kts 168°
2026-05-06 13:25 -33.95684 151.17666 25 ft 18 kts 169°
2026-05-06 13:25 -33.95804 151.17698 23 ft 17 kts 167°
2026-05-06 13:26 -33.95921 151.17729 21 ft 17 kts 168°
2026-05-06 13:26 -33.96032 151.17757 24 ft 16 kts 167°
2026-05-06 13:26 -33.96141 151.17785 23 ft 16 kts 168°
2026-05-06 13:26 -33.96266 151.17818 21 ft 20 kts 168°
2026-05-06 13:27 -33.96412 151.17864 24 ft 23 kts 148°
2026-05-06 13:27 -33.96426 151.18012 23 ft 17 kts 65°
2026-05-06 13:27 -33.96320 151.18041 24 ft 17 kts 344°
2026-05-06 13:27 -33.96274 151.18027 22 ft 0 kts 348°
2026-05-06 13:28 -33.96229 151.18015 23 ft 17 kts 348°
2026-05-06 13:28 -33.96044 151.17967 18 ft 39 kts 347°
2026-05-06 13:29 -33.95516 151.17829 21 ft 121 kts 347°
2026-05-06 13:29 -33.94488 151.17562 328 ft 163 kts 350°
2026-05-06 13:29 -33.93389 151.17376 1351 ft 166 kts 345°
2026-05-06 13:29 -33.92379 151.16748 2319 ft 172 kts 328°
2026-05-06 13:30 -33.91404 151.15741 2769 ft 197 kts 307°
2026-05-06 13:30 -33.90651 151.14300 3279 ft 214 kts 302°
2026-05-06 13:30 -33.89805 151.12712 3748 ft 236 kts 304°
2026-05-06 13:30 -33.88999 151.10875 4336 ft 253 kts 291°
2026-05-06 13:31 -33.88265 151.08953 5399 ft 253 kts 302°
2026-05-06 13:31 -33.87275 151.07196 6446 ft 255 kts 304°
2026-05-06 13:31 -33.86258 151.05432 7343 ft 259 kts 303°
2026-05-06 13:31 -33.85242 151.03616 8212 ft 264 kts 303°
2026-05-06 13:32 -33.84234 151.01747 9122 ft 268 kts 298°
2026-05-06 13:32 -33.83720 150.99585 9987 ft 273 kts 275°
2026-05-06 13:32 -33.84003 150.97297 10558 ft 291 kts 250°
2026-05-06 13:32 -33.85226 150.95202 10761 ft 324 kts 225°
2026-05-06 13:33 -33.87222 150.93756 11216 ft 347 kts 203°
2026-05-06 13:33 -33.89628 150.93229 11936 ft 359 kts 184°
2026-05-06 13:33 -33.92123 150.93653 12715 ft 370 kts 163°
2026-05-06 13:33 -33.94494 150.94934 13499 ft 377 kts 155°
2026-05-06 13:34 -33.96851 150.96370 14187 ft 382 kts 160°
2026-05-06 13:34 -33.99424 150.97093 14887 ft 379 kts 181°
2026-05-06 13:34 -34.02009 150.96706 15657 ft 374 kts 197°
2026-05-06 13:34 -34.04541 150.95918 16369 ft 378 kts 199°
2026-05-06 13:35 -34.07085 150.95054 17056 ft 382 kts 200°
2026-05-06 13:35 -34.09653 150.94171 17746 ft 386 kts 200°
2026-05-06 13:35 -34.12223 150.93298 18431 ft 390 kts 200°
2026-05-06 13:35 -34.14842 150.92424 19043 ft 393 kts 200°
2026-05-06 13:36 -34.17502 150.91548 19666 ft 397 kts 199°
2026-05-06 13:36 -34.20175 150.90675 20268 ft 400 kts 200°
2026-05-06 13:36 -34.22881 150.89796 20864 ft 404 kts 200°
2026-05-06 13:36 -34.25607 150.88912 21440 ft 407 kts 200°
2026-05-06 13:37 -34.28358 150.88020 22004 ft 411 kts 200°
2026-05-06 13:37 -34.31131 150.87121 22560 ft 414 kts 200°
2026-05-06 13:37 -34.33930 150.86212 23119 ft 418 kts 200°
2026-05-06 13:37 -34.36746 150.85297 23643 ft 421 kts 200°
2026-05-06 13:38 -34.39587 150.84373 24087 ft 425 kts 200°
2026-05-06 13:38 -34.42450 150.83442 24542 ft 427 kts 200°
2026-05-06 13:38 -34.45328 150.82507 24978 ft 430 kts 200°
2026-05-06 13:38 -34.48227 150.81563 25409 ft 433 kts 201°
2026-05-06 13:39 -34.51149 150.80609 25832 ft 436 kts 201°
2026-05-06 13:39 -34.54007 150.79539 26212 ft 432 kts 211°
2026-05-06 13:39 -34.56541 150.77591 26619 ft 421 kts 227°
2026-05-06 13:39 -34.58453 150.74965 27063 ft 414 kts 239°
2026-05-06 13:40 -34.60129 150.72178 27480 ft 415 kts 240°
2026-05-06 13:40 -34.61806 150.69316 27871 ft 417 kts 240°
2026-05-06 13:40 -34.63492 150.66433 28261 ft 420 kts 240°
2026-05-06 13:40 -34.65196 150.63539 28659 ft 422 kts 240°
2026-05-06 13:41 -34.66913 150.60644 29051 ft 424 kts 240°
2026-05-06 13:41 -34.68650 150.57734 29407 ft 426 kts 240°
2026-05-06 13:41 -34.70402 150.54809 29771 ft 428 kts 240°
2026-05-06 13:41 -34.72161 150.51876 30122 ft 430 kts 240°
2026-05-06 13:42 -34.73931 150.48927 30401 ft 432 kts 240°
2026-05-06 13:42 -34.75701 150.45975 30716 ft 433 kts 240°
2026-05-06 13:42 -34.77474 150.43018 31129 ft 431 kts 240°
2026-05-06 13:42 -34.79235 150.40079 31586 ft 428 kts 240°
2026-05-06 13:43 -34.80983 150.37162 32019 ft 425 kts 240°
2026-05-06 13:43 -34.82719 150.34255 32411 ft 424 kts 241°
2026-05-06 13:43 -34.84449 150.31356 32780 ft 423 kts 241°
2026-05-06 13:43 -34.86174 150.28463 33219 ft 420 kts 241°
2026-05-06 13:44 -34.87861 150.25632 33648 ft 418 kts 241°
2026-05-06 13:44 -34.89589 150.22731 34017 ft 417 kts 242°
2026-05-06 13:44 -34.91278 150.19890 34058 ft 422 kts 242°
2026-05-06 13:45 -34.94744 150.14042 34088 ft 430 kts 241°
2026-05-06 13:45 -35.00047 150.05105 34083 ft 434 kts 241°
2026-05-06 13:46 -35.03580 149.99142 34077 ft 434 kts 241°
2026-05-06 13:46 -35.07102 149.93175 34079 ft 433 kts 242°
2026-05-06 13:47 -35.10614 149.87205 34083 ft 432 kts 242°
2026-05-06 13:47 -35.14119 149.81245 34080 ft 431 kts 242°
2026-05-06 13:48 -35.17617 149.75289 34085 ft 431 kts 242°
2026-05-06 13:48 -35.21108 149.69335 34090 ft 430 kts 242°
2026-05-06 13:49 -35.24571 149.63421 34087 ft 430 kts 242°
2026-05-06 13:49 -35.28049 149.57470 34080 ft 430 kts 242°
2026-05-06 13:50 -35.31526 149.51511 34093 ft 430 kts 242°
2026-05-06 13:50 -35.35001 149.45544 34081 ft 431 kts 242°
2026-05-06 13:51 -35.38480 149.39560 34081 ft 431 kts 242°
2026-05-06 13:51 -35.41964 149.33558 34086 ft 432 kts 242°
2026-05-06 13:52 -35.45459 149.27524 34100 ft 437 kts 242°
2026-05-06 13:52 -35.48400 149.22435 34092 ft 441 kts 242°
2026-05-06 13:53 -35.51953 149.16289 34089 ft 440 kts 243°
2026-05-06 13:53 -35.55485 149.10171 34098 ft 439 kts 243°
2026-05-06 13:54 -35.59015 149.04040 34096 ft 439 kts 243°
2026-05-06 13:54 -35.62533 148.97918 34109 ft 438 kts 243°
2026-05-06 13:55 -35.66616 148.90798 34098 ft 438 kts 243°
2026-05-06 13:55 -35.69562 148.85651 34104 ft 439 kts 243°
2026-05-06 13:56 -35.73059 148.79534 34093 ft 440 kts 243°
2026-05-06 13:56 -35.76599 148.73331 34101 ft 440 kts 243°
2026-05-06 13:57 -35.80097 148.67193 34105 ft 441 kts 243°
2026-05-06 13:57 -35.83624 148.60994 34096 ft 441 kts 243°
2026-05-06 13:58 -35.87142 148.54800 34107 ft 440 kts 244°
2026-05-06 13:58 -35.90640 148.48610 34100 ft 439 kts 244°
2026-05-06 13:59 -35.94119 148.42425 34095 ft 438 kts 244°
2026-05-06 13:59 -35.97590 148.36245 34114 ft 437 kts 244°
2026-05-06 14:00 -36.01045 148.30091 34114 ft 437 kts 244°
2026-05-06 14:00 -36.04498 148.23933 34111 ft 436 kts 244°
2026-05-06 14:01 -36.07927 148.17804 34114 ft 436 kts 244°
2026-05-06 14:01 -36.11362 148.11656 34114 ft 433 kts 244°
2026-05-06 14:02 -36.14785 148.05525 34104 ft 433 kts 244°
2026-05-06 14:02 -36.18208 147.99396 34095 ft 432 kts 244°
2026-05-06 14:03 -36.21622 147.93278 34103 ft 431 kts 244°
2026-05-06 14:03 -36.25028 147.87163 34093 ft 431 kts 244°
2026-05-06 14:04 -36.28429 147.81046 34090 ft 431 kts 244°
2026-05-06 14:04 -36.31825 147.74929 34093 ft 430 kts 244°
2026-05-06 14:05 -36.35209 147.68807 34092 ft 430 kts 245°
2026-05-06 14:05 -36.38583 147.62679 34089 ft 430 kts 245°
2026-05-06 14:06 -36.41936 147.56582 34082 ft 430 kts 245°
2026-05-06 14:06 -36.45311 147.50441 34080 ft 430 kts 245°
2026-05-06 14:07 -36.48676 147.44307 34075 ft 429 kts 245°
2026-05-06 14:07 -36.52028 147.38187 34076 ft 428 kts 245°
2026-05-06 14:08 -36.55372 147.32070 34058 ft 427 kts 245°
2026-05-06 14:08 -36.58704 147.25963 34085 ft 426 kts 245°
2026-05-06 14:09 -36.62030 147.19856 34073 ft 425 kts 245°
2026-05-06 14:09 -36.65341 147.13767 34070 ft 425 kts 245°
2026-05-06 14:10 -36.68568 147.07849 34036 ft 398 kts 246°
2026-05-06 14:10 -36.70094 147.05049 33990 ft 382 kts 246°
2026-05-06 14:10 -36.71568 147.02320 33890 ft 378 kts 246°
2026-05-06 14:11 -36.73028 146.99611 33784 ft 376 kts 247°
2026-05-06 14:11 -36.74486 146.96901 33714 ft 376 kts 247°
2026-05-06 14:11 -36.75940 146.94201 33573 ft 375 kts 247°
2026-05-06 14:11 -36.77400 146.91495 33401 ft 375 kts 247°
2026-05-06 14:12 -36.80281 146.86155 32983 ft 365 kts 248°
2026-05-06 14:12 -36.81691 146.83541 32502 ft 362 kts 248°
2026-05-06 14:12 -36.83097 146.80922 31924 ft 363 kts 248°
2026-05-06 14:13 -36.84500 146.78307 31435 ft 362 kts 248°
2026-05-06 14:13 -36.85896 146.75709 31042 ft 358 kts 249°
2026-05-06 14:13 -36.87278 146.73136 30628 ft 356 kts 249°
2026-05-06 14:13 -36.88654 146.70572 30178 ft 355 kts 249°
2026-05-06 14:14 -36.90025 146.68012 29721 ft 352 kts 249°
2026-05-06 14:14 -36.91384 146.65476 29273 ft 349 kts 249°
2026-05-06 14:14 -36.92712 146.62996 28813 ft 346 kts 249°
2026-05-06 14:14 -36.94041 146.60512 28391 ft 342 kts 249°
2026-05-06 14:15 -36.95357 146.58050 27956 ft 339 kts 249°
2026-05-06 14:15 -36.96661 146.55608 27490 ft 336 kts 249°
2026-05-06 14:15 -36.97952 146.53188 27090 ft 333 kts 249°
2026-05-06 14:15 -36.99233 146.50786 26686 ft 330 kts 249°
2026-05-06 14:16 -37.00500 146.48408 26282 ft 327 kts 249°
2026-05-06 14:16 -37.01757 146.46046 25883 ft 325 kts 249°
2026-05-06 14:16 -37.03004 146.43701 25471 ft 323 kts 249°
2026-05-06 14:16 -37.04245 146.41367 25105 ft 321 kts 249°
2026-05-06 14:17 -37.05474 146.39057 24765 ft 317 kts 249°
2026-05-06 14:17 -37.06690 146.36765 24403 ft 315 kts 249°
2026-05-06 14:17 -37.07897 146.34491 24044 ft 312 kts 249°
2026-05-06 14:17 -37.09094 146.32232 23678 ft 310 kts 249°
2026-05-06 14:18 -37.10281 146.29992 23238 ft 308 kts 249°
2026-05-06 14:18 -37.11461 146.27762 22796 ft 305 kts 249°
2026-05-06 14:18 -37.12633 146.25545 22326 ft 304 kts 249°
2026-05-06 14:18 -37.13801 146.23331 21868 ft 304 kts 249°
2026-05-06 14:19 -37.14964 146.21132 21465 ft 301 kts 249°
2026-05-06 14:19 -37.16114 146.18955 21114 ft 298 kts 249°
2026-05-06 14:19 -37.17255 146.16797 20763 ft 295 kts 249°
2026-05-06 14:19 -37.18381 146.14665 20411 ft 292 kts 249°
2026-05-06 14:20 -37.19495 146.12552 20074 ft 289 kts 249°
2026-05-06 14:20 -37.20598 146.10457 19729 ft 287 kts 249°
2026-05-06 14:20 -37.21697 146.08367 19387 ft 285 kts 249°
2026-05-06 14:20 -37.22787 146.06297 19045 ft 282 kts 249°
2026-05-06 14:21 -37.23863 146.04253 18743 ft 280 kts 249°
2026-05-06 14:21 -37.24920 146.02240 18390 ft 279 kts 249°
2026-05-06 14:21 -37.25983 146.00217 18030 ft 275 kts 248°
2026-05-06 14:21 -37.27031 145.98222 17709 ft 273 kts 248°
2026-05-06 14:22 -37.28070 145.96242 17388 ft 270 kts 248°
2026-05-06 14:22 -37.29093 145.94291 17084 ft 265 kts 248°
2026-05-06 14:22 -37.29966 145.92301 16763 ft 253 kts 259°
2026-05-06 14:22 -37.30442 145.90214 16425 ft 247 kts 267°
2026-05-06 14:23 -37.30595 145.88050 16056 ft 254 kts 274°
2026-05-06 14:23 -37.30572 145.85801 15743 ft 261 kts 275°
2026-05-06 14:23 -37.30521 145.83517 15379 ft 261 kts 275°
2026-05-06 14:23 -37.30473 145.81247 15004 ft 260 kts 275°
2026-05-06 14:24 -37.30430 145.78959 14532 ft 263 kts 274°
2026-05-06 14:24 -37.30396 145.76714 14344 ft 255 kts 274°
2026-05-06 14:24 -37.30363 145.74507 14063 ft 251 kts 273°
2026-05-06 14:24 -37.30330 145.72324 13713 ft 250 kts 273°
2026-05-06 14:25 -37.30297 145.70157 13393 ft 246 kts 273°
2026-05-06 14:25 -37.30340 145.68017 13055 ft 246 kts 263°
2026-05-06 14:25 -37.30868 145.65980 12766 ft 249 kts 248°
2026-05-06 14:25 -37.31828 145.64136 12471 ft 254 kts 241°
2026-05-06 14:26 -37.32876 145.62323 12128 ft 259 kts 240°
2026-05-06 14:26 -37.33962 145.60460 11308 ft 278 kts 239°
2026-05-06 14:26 -37.35124 145.58464 10520 ft 291 kts 238°
2026-05-06 14:26 -37.36313 145.56426 10271 ft 285 kts 238°
2026-05-06 14:27 -37.37473 145.54435 10003 ft 279 kts 238°
2026-05-06 14:27 -37.38605 145.52487 9721 ft 273 kts 237°
2026-05-06 14:27 -37.39711 145.50577 9449 ft 267 kts 237°
2026-05-06 14:27 -37.40793 145.48706 9175 ft 262 kts 237°
2026-05-06 14:28 -37.41845 145.46881 9045 ft 252 kts 237°
2026-05-06 14:28 -37.42858 145.45125 9021 ft 244 kts 237°
2026-05-06 14:28 -37.43843 145.43411 8818 ft 240 kts 236°
2026-05-06 14:28 -37.44825 145.41702 8443 ft 242 kts 236°
2026-05-06 14:29 -37.45809 145.39988 8127 ft 241 kts 236°
2026-05-06 14:29 -37.46786 145.38285 7824 ft 239 kts 235°
2026-05-06 14:29 -37.47753 145.36600 7570 ft 236 kts 235°
2026-05-06 14:29 -37.48713 145.34927 7267 ft 235 kts 235°
2026-05-06 14:30 -37.49669 145.33261 6969 ft 233 kts 234°
2026-05-06 14:30 -37.50614 145.31612 6703 ft 231 kts 234°
2026-05-06 14:30 -37.51554 145.29974 6414 ft 230 kts 234°
2026-05-06 14:30 -37.52489 145.28341 6166 ft 229 kts 234°
2026-05-06 14:31 -37.53412 145.26726 5920 ft 226 kts 234°
2026-05-06 14:31 -37.54332 145.25118 5593 ft 226 kts 234°
2026-05-06 14:31 -37.55251 145.23511 5307 ft 225 kts 234°
2026-05-06 14:31 -37.56161 145.21918 5096 ft 223 kts 234°
2026-05-06 14:32 -37.56761 145.20868 5052 ft 223 kts 234°
2026-05-06 14:32 -37.57971 145.18750 5024 ft 222 kts 234°
2026-05-06 14:32 -37.58861 145.17189 5015 ft 222 kts 234°
2026-05-06 14:32 -37.59760 145.15609 5012 ft 222 kts 234°
2026-05-06 14:33 -37.60650 145.14047 5005 ft 215 kts 234°
2026-05-06 14:33 -37.61500 145.12558 4997 ft 203 kts 234°
2026-05-06 14:33 -37.62299 145.11159 4984 ft 190 kts 234°
2026-05-06 14:33 -37.63048 145.09848 4989 ft 180 kts 234°
2026-05-06 14:34 -37.63768 145.08585 5014 ft 172 kts 234°
2026-05-06 14:34 -37.64442 145.07402 5009 ft 161 kts 234°
2026-05-06 14:34 -37.65087 145.06271 4990 ft 158 kts 235°
2026-05-06 14:34 -37.65724 145.05151 4780 ft 156 kts 234°
2026-05-06 14:35 -37.66360 145.04034 4417 ft 157 kts 235°
2026-05-06 14:35 -37.66957 145.02862 4009 ft 160 kts 249°
2026-05-06 14:35 -37.67080 145.01468 3612 ft 161 kts 267°
2026-05-06 14:35 -37.67031 145.00029 2961 ft 169 kts 269°
2026-05-06 14:36 -37.66983 144.98584 2580 ft 156 kts 268°
2026-05-06 14:36 -37.66942 144.97293 2377 ft 139 kts 269°
2026-05-06 14:36 -37.66884 144.96138 2203 ft 125 kts 269°
2026-05-06 14:36 -37.66825 144.95074 2076 ft 118 kts 269°
2026-05-06 14:37 -37.66766 144.94043 1896 ft 119 kts 269°
2026-05-06 14:37 -37.66705 144.92984 1747 ft 122 kts 270°
2026-05-06 14:37 -37.66641 144.91907 1566 ft 124 kts 270°
2026-05-06 14:37 -37.66598 144.91190 1442 ft 124 kts 270°
2026-05-06 14:38 -37.66517 144.89723 1179 ft 125 kts 270°
2026-05-06 14:38 -37.66475 144.89025 1105 ft 117 kts 273°
2026-05-06 14:38 -37.66390 144.87642 931 ft 126 kts 272°
2026-05-06 14:38 -37.66341 144.86888 821 ft 127 kts 271°
2026-05-06 14:39 -37.66260 144.85436 573 ft 124 kts 271°
2026-05-06 14:39 -37.66198 144.84345 416 ft 122 kts 272°
2026-05-06 14:39 -37.66148 144.83483 415 ft 68 kts 274°
2026-05-06 14:39 -37.66133 144.83130 410 ft 23 kts 265°
2026-05-06 14:40 -37.66167 144.82945 406 ft 21 kts 249°
2026-05-06 14:40 -37.66208 144.82835 400 ft 20 kts 244°
2026-05-06 14:40 -37.66332 144.82678 391 ft 19 kts 183°
2026-05-06 14:40 -37.66417 144.82725 387 ft 22 kts 132°
2026-05-06 14:41 -37.66453 144.82910 389 ft 23 kts 94°
2026-05-06 14:41 -37.66464 144.83105 393 ft 22 kts 94°
2026-05-06 14:41 -37.66475 144.83298 398 ft 21 kts 94°
2026-05-06 14:41 -37.66486 144.83479 403 ft 21 kts 94°
2026-05-06 14:42 -37.66496 144.83658 404 ft 20 kts 94°
2026-05-06 14:42 -37.66506 144.83844 402 ft 23 kts 94°
2026-05-06 14:42 -37.66518 144.84037 402 ft 21 kts 94°
2026-05-06 14:42 -37.66528 144.84217 404 ft 21 kts 94°
2026-05-06 14:43 -37.66515 144.84408 402 ft 22 kts 81°
2026-05-06 14:43 -37.66493 144.84590 405 ft 19 kts 81°
2026-05-06 14:43 -37.66479 144.84710 409 ft 9 kts 83°
2026-05-06 14:43 -37.66508 144.84783 407 ft 11 kts 146°
2026-05-06 14:44 -37.66599 144.84796 402 ft 16 kts 188°
2026-05-06 14:44 -37.66681 144.84822 401 ft 9 kts 127°
2026-05-06 14:44 -37.66680 144.84889 402 ft 3 kts 82°
2026-05-06 14:45 -37.66680 144.84892 402 ft 0 kts 82°